Wind_Speed
28 29 30 31 31 32 32 33 33 34 34 34 35 35 35 36 35 35 35 35 36 37 39 40 42 43 43 42 42 42 42 41 41 39 37 35 35 34 33 34 36 37
29 30 31 32 32 33 33 34 34 35 35 35 35 36 36 36 36 36 36 36 37 38 39 40 42 43 44 43 42 42 41 41 41 41 39 37 37 37 37 37 38 39
31 31 33 34 34 34 34 35 36 36 36 36 36 37 37 37 37 37 38 38 39 39 40 41 42 43 44 44 43 42 41 41 41 42 41 40 39 39 39 40 40 40
32 33 34 35 35 36 36 37 38 38 38 38 38 38 38 39 39 39 39 40 40 41 41 43 43 44 45 45 44 43 42 42 42 42 42 42 42 41 41 41 41 41
33 34 35 36 37 37 37 38 39 39 39 39 39 39 39 40 40 41 41 42 42 42 43 44 45 45 45 45 44 43 42 43 43 43 44 44 45 45 44 42 41 42
35 35 37 38 38 38 38 39 40 40 40 40 40 40 40 41 41 42 43 43 43 44 44 45 47 47 46 45 44 43 43 44 44 44 45 46 47 46 46 45 42 41
36 37 38 39 39 39 39 40 40 40 41 41 41 41 41 42 42 43 44 44 45 45 45 46 47 48 47 46 45 45 46 46 46 46 47 47 48 47 47 46 44 42
37 37 38 39 40 40 40 41 41 40 40 41 42 42 42 42 43 44 45 46 46 46 46 46 47 48 48 47 47 47 48 49 48 48 48 47 48 48 46 46 44 42
38 38 39 39 40 41 41 41 42 41 41 41 41 43 43 44 45 46 47 47 46 46 46 46 47 48 49 49 48 48 49 50 50 50 49 47 47 46 45 45 43 41
38 38 39 39 40 41 41 42 42 43 43 42 42 43 44 45 46 47 47 47 46 46 46 46 47 48 50 50 49 50 51 50 49 49 49 47 45 45 44 43 42 41
39 38 39 39 40 41 42 43 44 44 45 44 44 44 45 46 47 47 47 46 46 45 46 46 47 49 51 50 48 48 47 45 45 46 46 46 43 42 42 42 41 40
39 38 39 40 41 42 43 44 45 46 46 46 45 45 45 46 47 47 46 46 46 45 45 46 46 48 49 50 50 49 42 39 43 44 43 43 42 41 41 41 40 40
39 38 40 41 42 43 45 46 46 47 47 47 46 46 46 47 47 47 46 46 46 46 46 47 47 47 47 48 51 52 46 44 45 43 41 41 40 39 39 39 39 40
40 40 41 43 44 46 47 47 47 48 47 47 46 46 46 47 47 47 47 47 46 46 46 47 47 47 47 47 48 49 50 48 46 42 40 40 39 38 37 37 38 39
42 43 43 45 46 47 48 47 48 48 47 47 47 46 47 47 48 48 48 47 47 47 47 47 47 47 48 47 46 46 47 46 43 40 38 37 37 36 35 36 37 38
44 45 45 47 48 49 49 48 48 48 48 48 48 47 47 48 48 48 48 47 47 47 47 47 46 47 47 47 45 44 42 41 39 37 36 35 35 35 34 34 36 38
46 46 47 49 50 50 50 49 49 49 49 49 48 48 48 48 49 48 47 47 47 47 48 47 47 46 46 45 43 41 38 36 36 35 34 33 33 33 34 34 35 37
47 47 49 50 51 50 50 50 50 49 49 49 49 49 49 49 49 48 47 48 48 48 47 45 43 43 42 41 39 37 35 33 33 33 32 31 31 32 33 33 34 36
47 49 50 51 51 51 50 50 50 50 50 50 50 50 50 49 49 48 48 49 48 47 45 41 39 40 40 39 36 33 32 31 31 31 30 30 30 31 33 35 35 36
48 49 50 51 51 51 51 50 49 49 50 50 50 50 50 50 48 48 49 49 48 47 45 42 40 40 40 38 34 31 31 31 30 29 29 29 29 31 33 35 37 38
48 50 51 51 51 51 51 50 48 48 49 50 50 50 50 49 48 48 49 48 46 45 44 43 41 39 38 37 34 31 30 30 29 29 29 29 29 31 33 35 37 39
49 51 52 52 51 51 50 48 47 46 47 49 49 50 49 49 48 49 49 48 46 44 43 42 41 39 38 37 34 31 29 29 29 29 28 28 29 31 33 35 37 39
49 51 51 50 50 49 48 47 46 45 46 48 48 49 49 48 49 50 49 47 46 45 43 41 39 37 36 35 34 31 28 28 30 29 28 28 29 31 33 35 37 39
49 50 50 50 49 48 48 46 44 44 45 46 48 48 48 47 49 50 48 46 45 44 43 41 37 35 34 33 32 30 28 28 29 29 28 28 28 31 33 33 34 36
48 49 50 50 49 47 47 46 44 42 43 45 47 48 47 48 49 49 47 45 44 43 42 40 36 33 32 32 31 29 27 28 28 28 28 28 27 29 32 32 32 33
48 49 50 50 48 46 46 47 45 43 43 46 48 47 45 46 48 48 46 44 43 43 42 38 34 31 31 31 30 27 26 27 28 27 28 27 27 28 30 31 31 32
Wind_Direction
316 315 313 311 309 309 310 310 309 309 310 312 313 314 315 316 316 318 318 317 317 315 314 313 311 311 311 311 310 310 310 309 307 304 301 298 297 297 297 296 294 290
313 314 313 312 310 309 309 309 309 308 308 309 310 311 312 314 315 317 318 318 317 316 314 312 310 309 308 307 307 307 307 307 305 304 301 297 295 296 297 297 295 292
310 312 312 311 310 309 308 308 308 307 307 307 308 310 311 313 315 317 318 317 316 316 314 312 310 308 306 306 305 304 304 303 302 302 301 298 296 296 296 295 294 291
307 309 310 310 309 308 307 307 308 308 307 307 307 309 311 313 315 316 317 317 316 316 314 312 310 308 305 304 303 303 302 300 299 299 298 297 297 296 295 294 292 289
305 306 307 307 307 307 307 307 308 308 307 306 307 308 310 312 314 315 316 316 316 315 314 312 310 307 305 303 302 301 300 299 298 297 296 296 296 295 295 293 291 288
304 304 304 305 306 307 308 308 308 308 307 305 306 307 308 310 312 314 315 315 315 314 313 311 309 307 305 303 301 300 298 298 298 297 296 296 295 295 294 293 291 287
302 302 302 303 305 306 308 308 308 308 307 305 305 306 307 307 310 312 314 315 314 313 312 311 309 307 305 304 301 299 298 298 298 298 297 296 295 295 295 293 291 287
301 301 301 302 304 306 307 308 308 307 307 306 306 306 306 307 309 311 313 314 314 312 311 310 308 307 306 303 301 300 299 299 299 299 298 297 296 295 295 293 290 287
302 301 300 302 304 306 307 308 308 308 307 306 306 306 306 307 309 311 313 314 313 311 311 310 309 308 305 303 301 300 300 300 300 300 299 298 296 295 294 291 289 285
303 301 300 301 304 306 308 309 309 309 308 308 308 308 308 309 311 312 313 313 312 311 310 310 309 308 305 302 301 301 300 299 300 300 300 299 297 295 293 290 288 285
304 302 301 302 305 308 310 311 311 311 311 311 310 310 310 311 312 313 314 313 312 311 310 310 310 309 308 306 306 305 301 299 300 301 300 300 297 295 292 290 289 286
304 302 302 305 307 310 312 313 313 313 313 312 312 311 311 312 313 314 314 313 312 311 311 310 310 311 310 308 308 308 303 301 304 304 301 300 297 294 292 292 291 289
305 304 305 308 310 313 314 314 314 314 313 312 311 311 312 313 314 315 315 314 313 312 311 310 310 310 309 306 305 305 303 304 308 305 302 299 296 294 294 294 293 291
306 307 308 311 313 314 315 315 314 313 312 311 311 312 313 314 315 315 315 314 313 313 312 311 311 309 307 305 303 300 300 303 305 303 300 298 295 295 297 296 295 294
308 309 310 312 314 315 315 314 313 312 312 312 312 314 315 315 316 316 315 315 314 314 313 312 311 308 306 305 303 301 300 301 301 300 298 295 295 297 298 297 297 298
309 309 311 313 314 314 314 313 312 312 313 313 314 315 316 316 316 316 316 315 315 315 314 313 311 308 306 306 305 302 300 299 298 297 296 295 296 298 299 299 301 302
308 309 311 313 313 313 314 313 313 314 314 314 314 315 316 316 316 316 316 316 316 316 315 313 310 307 305 305 306 303 300 298 297 296 295 296 297 298 300 302 304 305
308 310 312 312 312 313 313 313 314 314 314 314 314 315 315 315 314 315 315 316 316 316 314 311 310 308 306 306 306 305 302 299 297 295 295 296 298 299 302 305 307 309
309 310 311 311 312 313 313 314 314 315 314 314 314 314 314 313 313 314 316 316 316 315 312 309 308 308 307 305 305 305 305 303 298 296 297 298 300 301 304 308 309 311
309 310 311 312 312 312 313 313 314 314 313 313 313 312 312 312 312 313 315 316 315 313 310 306 303 304 304 304 303 303 305 306 301 299 299 300 302 304 307 308 310 313
309 310 311 311 311 311 312 313 314 313 312 311 311 311 311 311 312 313 315 315 314 311 308 304 301 300 301 302 302 300 301 304 303 302 302 302 304 307 307 306 309 312
310 310 310 310 311 311 312 313 314 312 310 310 310 311 311 312 313 314 315 315 313 310 306 302 300 299 298 299 301 301 301 302 304 304 304 304 305 308 308 307 310 314
309 309 308 309 310 311 313 314 312 310 308 309 310 310 311 312 313 315 315 314 312 309 306 303 301 299 298 298 300 302 301 300 302 305 305 306 307 309 309 311 314 316
307 307 308 309 311 312 312 311 309 307 307 309 310 310 310 312 315 315 315 314 312 308 305 304 302 299 297 299 300 300 299 299 302 306 307 309 310 310 311 315 317 317
306 307 308 310 311 311 309 307 307 307 308 309 310 310 311 314 315 314 314 314 311 308 305 304 302 298 296 298 299 299 300 301 304 308 309 310 311 310 313 317 318 319
306 306 307 309 309 306 305 306 307 309 310 310 311 312 312 313 314 313 314 313 309 306 306 305 302 297 295 297 298 300 302 303 304 308 310 310 311 312 315 319 321 324
Height
5895 5894 5892 5890 5888 5886 5884 5883 5881 5879 5877 5876 5874 5872 5870 5867 5865 5863 5861 5858 5856 5853 5850 5848 5845 5842 5840 5837 5834 5832 5830 5827 5825 5824 5823 5822 5820 5818 5817 5815 5813 5811
5892 5891 5889 5887 5885 5883 5881 5879 5878 5876 5874 5872 5870 5868 5866 5864 5862 5860 5857 5854 5852 5849 5847 5844 5842 5839 5836 5833 5831 5828 5826 5824 5821 5819 5818 5817 5815 5814 5812 5810 5809 5806
5889 5887 5886 5884 5882 5880 5878 5876 5874 5872 5871 5869 5867 5865 5863 5860 5858 5855 5853 5850 5847 5845 5842 5840 5837 5835 5832 5829 5827 5824 5822 5820 5818 5815 5813 5811 5810 5809 5807 5805 5803 5801
5885 5883 5882 5880 5878 5877 5875 5872 5870 5868 5866 5864 5862 5860 5858 5856 5853 5851 5848 5846 5843 5840 5838 5835 5833 5831 5828 5825 5823 5820 5817 5815 5813 5811 5809 5807 5805 5803 5801 5799 5797 5795
5881 5880 5878 5876 5875 5873 5871 5869 5866 5864 5862 5860 5858 5856 5853 5851 5849 5846 5844 5841 5839 5836 5833 5830 5828 5826 5824 5821 5818 5816 5812 5809 5808 5806 5804 5802 5799 5797 5795 5793 5791 5789
5878 5876 5874 5872 5871 5869 5867 5865 5862 5860 5858 5856 5854 5852 5849 5847 5845 5843 5840 5838 5835 5832 5829 5826 5823 5821 5819 5817 5814 5811 5808 5804 5802 5800 5798 5795 5793 5791 5788 5786 5785 5783
5874 5872 5871 5869 5867 5865 5863 5861 5858 5856 5854 5851 5850 5848 5846 5843 5841 5839 5836 5834 5831 5827 5824 5821 5817 5815 5813 5812 5810 5806 5803 5800 5797 5794 5792 5789 5787 5785 5781 5779 5777 5776
5871 5869 5867 5865 5863 5861 5859 5857 5854 5853 5850 5848 5845 5843 5841 5839 5837 5835 5832 5829 5826 5823 5820 5817 5814 5810 5807 5806 5804 5801 5797 5794 5791 5789 5786 5783 5780 5778 5775 5772 5771 5769
5867 5865 5863 5861 5859 5857 5855 5852 5850 5848 5846 5844 5842 5839 5837 5835 5833 5830 5828 5825 5822 5818 5815 5813 5810 5806 5802 5798 5797 5795 5791 5788 5785 5782 5780 5778 5775 5771 5769 5766 5764 5763
5863 5861 5859 5857 5855 5853 5850 5848 5846 5843 5841 5840 5838 5835 5832 5829 5827 5825 5822 5819 5816 5813 5810 5808 5805 5802 5797 5793 5790 5788 5785 5782 5779 5775 5773 5771 5769 5766 5763 5760 5759 5757
5859 5857 5855 5853 5851 5849 5846 5843 5841 5839 5837 5834 5832 5830 5827 5824 5822 5819 5816 5814 5811 5808 5805 5803 5800 5796 5791 5787 5783 5780 5778 5775 5773 5770 5767 5764 5762 5760 5757 5755 5753 5751
5854 5852 5850 5848 5846 5844 5842 5839 5836 5834 5832 5829 5827 5825 5822 5819 5816 5814 5811 5808 5805 5802 5800 5797 5795 5792 5787 5782 5777 5773 5771 5769 5767 5765 5761 5758 5756 5754 5751 5749 5747 5745
5850 5848 5846 5844 5842 5839 5837 5834 5832 5829 5827 5824 5822 5819 5816 5813 5811 5808 5805 5802 5799 5797 5794 5792 5789 5787 5784 5779 5775 5770 5766 5763 5761 5758 5756 5753 5750 5749 5746 5744 5742 5739
5845 5843 5842 5839 5837 5835 5832 5829 5827 5824 5822 5819 5817 5814 5811 5808 5805 5802 5799 5796 5793 5791 5788 5786 5783 5780 5778 5775 5771 5767 5762 5758 5755 5752 5751 5748 5746 5744 5742 5739 5736 5733
5841 5839 5837 5835 5832 5830 5827 5824 5822 5819 5817 5814 5811 5808 5805 5802 5799 5796 5793 5790 5787 5785 5782 5780 5777 5773 5770 5768 5765 5761 5757 5754 5750 5747 5746 5744 5741 5739 5737 5735 5731 5728
5836 5834 5832 5830 5828 5825 5822 5819 5817 5814 5811 5808 5805 5802 5799 5796 5793 5790 5787 5784 5781 5779 5776 5774 5771 5766 5762 5760 5758 5755 5752 5749 5745 5743 5741 5739 5737 5735 5733 5730 5727 5723
5832 5830 5828 5825 5823 5820 5817 5814 5811 5809 5806 5802 5800 5797 5794 5791 5788 5785 5782 5778 5775 5773 5770 5767 5765 5761 5756 5754 5752 5749 5746 5744 5741 5738 5737 5735 5733 5731 5729 5726 5723 5719
5828 5825 5823 5820 5817 5814 5812 5809 5806 5803 5800 5797 5794 5792 5789 5786 5783 5780 5777 5773 5770 5767 5764 5761 5758 5755 5751 5749 5747 5744 5741 5739 5737 5734 5733 5731 5729 5727 5724 5722 5719 5716
5823 5820 5818 5815 5812 5809 5806 5803 5800 5797 5794 5792 5789 5786 5783 5781 5778 5775 5772 5768 5764 5762 5759 5756 5752 5749 5746 5744 5743 5740 5738 5735 5733 5731 5729 5727 5726 5723 5721 5717 5714 5712
5819 5816 5813 5810 5807 5804 5801 5798 5796 5792 5789 5786 5783 5781 5778 5775 5773 5770 5767 5763 5759 5756 5753 5751 5748 5744 5741 5739 5738 5736 5734 5731 5729 5728 5726 5724 5722 5720 5717 5713 5710 5707
5814 5811 5808 5805 5802 5799 5796 5794 5791 5788 5784 5781 5778 5775 5772 5770 5767 5764 5761 5758 5755 5750 5747 5744 5742 5740 5738 5735 5733 5731 5730 5728 5726 5724 5722 5720 5718 5716 5713 5710 5707 5704
5809 5806 5803 5800 5797 5794 5791 5789 5786 5783 5780 5776 5773 5770 5767 5764 5761 5758 5755 5752 5749 5746 5742 5739 5737 5735 5733 5731 5729 5727 5726 5724 5723 5721 5719 5717 5715 5713 5710 5707 5704 5701
5805 5802 5799 5796 5793 5790 5787 5784 5781 5778 5775 5772 5769 5766 5763 5759 5755 5752 5749 5747 5743 5740 5737 5734 5732 5730 5728 5726 5725 5724 5723 5721 5719 5718 5716 5713 5711 5709 5706 5704 5701 5697
5800 5797 5794 5791 5788 5785 5783 5780 5777 5774 5771 5767 5764 5761 5758 5755 5751 5747 5744 5741 5738 5735 5732 5729 5728 5726 5724 5723 5722 5720 5719 5718 5716 5714 5713 5710 5708 5706 5703 5701 5699 5696
5796 5792 5790 5787 5784 5782 5779 5776 5773 5770 5766 5763 5759 5756 5753 5750 5747 5743 5740 5737 5734 5730 5728 5725 5724 5723 5721 5719 5718 5717 5716 5714 5712 5711 5710 5707 5705 5703 5701 5698 5696 5694
5791 5788 5785 5783 5781 5778 5775 5771 5768 5765 5762 5758 5755 5752 5748 5746 5743 5740 5736 5733 5730 5727 5724 5722 5721 5719 5717 5716 5715 5714 5713 5712 5710 5708 5707 5705 5702 5700 5698 5695 5692 5690